Flag for Canada Weather past 2 weeks in Dawson Creek, British Columbia, Canada

Now
25 °F

Passing clouds.


Feels Like: 16 °F
Forecast: 12 / 33 °F
Wind: 8 mph from Southeast

Location: Dawson Creek Airport

Current Time: Mar 1, 2015 at 1:45:04 AM

Latest Report: Mar 1, 2015 at 1:00 AM


Visibility: 9 mi

Pressure: 30.19 "Hg

Humidity: 63%

Dew point: 14 °F

Location of Dawson CreekLocation

Historic Weather in Dawson Creek — Graph

°F

Dawson Creek temperature yesterday

Maximum temperature yesterday: 28 °F (at 2:00 PM)
Minimum temperature yesterday: 7 °F (at 1:00 AM)
Average temperature yesterday: 20 °F

Past Weeks' High & Low Weather Summary

 TemperatureHumidityPressure
High52 °F (Feb 23, 4:00 PM)100% (Feb 14, 12:00 AM)30.66 "Hg (Feb 14, 12:00 AM)
Low5 °F (Feb 27, 5:00 AM)39% (Feb 24, 1:00 AM)29.85 "Hg (Feb 18, 10:00 PM)
Average28 °F77%30.29 "Hg
* Reported Midnight between Feb 13 and Feb 14 — Midnight between Feb 28 and Mar 1, Dawson Creek, Weather by CustomWeather, © 2015

Note: Actual official high and low records may vary slightly from our data, if they occured in-between our weather recording intervals... More about our weather records

Advertising

Dawson Creek weather history for previous 24 hours

 ConditionsComfort  
Time TempWeatherWind HumidityBarometerVisibility
12:00 AM
Sun, Mar 1
27 °FPassing clouds.8 mph59%30.21 "Hg9 mi
11:00 PM
Sat, Feb 28
27 °FPassing clouds.8 mph59%30.22 "Hg9 mi
10:00 PM27 °FOvercast.8 mph59%30.24 "Hg9 mi
9:00 PM27 °FOvercast.6 mph59%30.26 "Hg9 mi
8:00 PM23 °FPassing clouds.3 mph68%30.28 "Hg9 mi
7:00 PM23 °FPartly sunny.2 mph68%30.31 "Hg9 mi
6:00 PM25 °FBroken clouds.No wind63%30.33 "Hg9 mi
5:00 PM28 °FPartly sunny.No wind55%30.35 "Hg9 mi
4:00 PM28 °FPassing clouds.2 mph51%30.37 "Hg9 mi
3:00 PM28 °FSunny.5 mph55%30.39 "Hg9 mi
2:00 PM28 °FSunny.2 mph55%30.41 "Hg9 mi
1:00 PM27 °FSunny.2 mph54%30.44 "Hg9 mi
12:00 PM25 °FSunny.3 mph59%30.46 "Hg9 mi
11:00 AM21 °FSunny.3 mph68%30.46 "Hg9 mi
10:00 AM19 °FSunny.3 mph68%30.45 "Hg9 mi
9:00 AM18 °FSunny.2 mph73%30.43 "Hg9 mi
8:00 AM16 °FClear.12 mph79%30.41 "Hg9 mi
7:00 AM16 °FClear.9 mph79%30.41 "Hg9 mi
6:00 AM18 °FClear.14 mph73%30.38 "Hg9 mi
5:00 AM16 °FClear.13 mph79%30.34 "Hg9 mi
4:00 AM16 °FClear.12 mph79%30.32 "Hg9 mi
3:00 AM12 °FClear.3 mph79%30.33 "Hg9 mi
2:00 AM7 °FClear.5 mph85%30.33 "Hg9 mi
1:00 AM7 °FClear.3 mph92%30.34 "Hg9 mi
Weather by CustomWeather, © 2015

See weather overviewHow to use our weather pages